Flag for Brazil Weather past 2 weeks in Rio Grande, Rio Grande do Sul, Brazil

Now
86 °F

Passing clouds.


Feels Like: 85 °F
Forecast: 64 / 75 °F
Wind: 8 mph from Northwest

Location: Porto Alegre Aero-Porto

Current Time: Aug 30, 2015 at 3:38:45 PM

Latest Report: Aug 30, 2015 at 3:00 PM


Visibility: N/A

Pressure: 29.95 "Hg

Humidity: 40%

Dew point: 59 °F

Location of Rio GrandeLocation

Historic Weather in Rio Grande — Graph

°F

Rio Grande temperature yesterday

Maximum temperature yesterday: 82 °F (at 3:00 PM)
Minimum temperature yesterday: 48 °F (at 6:00 AM)
Average temperature yesterday: 64 °F

Past Weeks' High & Low Weather Summary

 TemperatureHumidityPressure
High84 °F (Aug 17, 3:00 PM)100% (Aug 22, 8:00 PM)30.27 "Hg (Aug 22, 8:00 PM)
Low45 °F (Aug 26, 5:00 PM)29% (Aug 27, 4:00 PM)29.77 "Hg (Aug 22, 4:00 PM)
Average65 °F75%30.03 "Hg
* Reported Aug 15 2:00 PM — Aug 30 2:00 PM, Rio Grande, Weather by CustomWeather, © 2015

Note: Actual official high and low records may vary slightly from our data, if they occured in-between our weather recording intervals... More about our weather records

Advertising

Rio Grande weather history for previous 24 hours

 ConditionsComfort  
Time TempWeatherWind HumidityBarometerVisibility
2:00 PM
Sun, Aug 30
84 °FPassing clouds.6 mph40%29.98 "HgN/A
1:00 PM82 °FPassing clouds.6 mph42%30.01 "HgN/A
12:00 PM81 °FPassing clouds.9 mph42%30.04 "HgN/A
11:00 AM75 °FPassing clouds.5 mph57%30.07 "HgN/A
10:00 AM70 °FPassing clouds.3 mph64%30.07 "HgN/A
9:00 AM64 °FSunny.3 mph78%30.07 "Hg10 mi
8:00 AM59 °FClear.2 mph100%30.04 "Hg4 mi
7:00 AM57 °FFog.5 mph94%30.01 "Hg3 mi
6:00 AM55 °FFog.3 mph94%30.01 "Hg3 mi
5:00 AM55 °FFog.No wind94%29.98 "Hg2 mi
4:00 AM57 °FFog.No wind94%29.98 "Hg2 mi
3:00 AM55 °FFog.5 mph94%29.98 "Hg2 mi
2:00 AM59 °FFog.2 mph94%30.01 "Hg3 mi
1:00 AM59 °FFog.3 mph94%30.01 "Hg3 mi
12:00 AM61 °FFog.No wind88%30.01 "Hg3 mi
11:00 PM
Sat, Aug 29
61 °FFog.3 mph88%29.98 "Hg3 mi
10:00 PM63 °FClear.2 mph83%29.98 "Hg4 mi
9:00 PM64 °FClear.2 mph83%29.98 "Hg10 mi
8:00 PM66 °FClear.3 mph73%29.98 "Hg10 mi
7:00 PM72 °FClear.5 mph65%29.98 "Hg10 mi
6:00 PM75 °FClear.5 mph54%29.95 "Hg10 mi
5:00 PM81 °FSunny.9 mph42%29.95 "Hg10 mi
4:00 PM82 °FSunny.10 mph32%29.95 "Hg10 mi
3:00 PM82 °FPassing clouds.8 mph37%29.95 "HgN/A
Weather by CustomWeather, © 2015

See weather overviewHow to use our weather pages